FDB1025 VRMM-VCBI

Flight info

Callsign FDB1025
Flight time N/A
Altitude 35000
Route HOKEY1B HOKEY DCT TELIG LALUM1A
Aircraft B738/M-SDGIJ1LRWY/SB1

Departure

Time 2026-05-05 05:40
Airport Velana International Airport (VRMM)

Arrival

Time N/A
Airport Bandaranaike International Colombo Airport (VCBI)
Time Latitude Longitude Altitude Speed Heading
2026-05-05 05:09 4.18130 73.52762 11 ft 0 kts 269°
2026-05-05 05:30 4.18130 73.52768 10 ft 2 kts 270°
2026-05-05 05:30 4.18130 73.52782 10 ft 2 kts 269°
2026-05-05 05:30 4.18130 73.52798 10 ft 2 kts 270°
2026-05-05 05:30 4.18130 73.52813 11 ft 2 kts 269°
2026-05-05 05:31 4.18130 73.52823 11 ft 2 kts 270°
2026-05-05 05:31 4.18133 73.52837 10 ft 2 kts 243°
2026-05-05 05:31 4.18141 73.52850 10 ft 2 kts 225°
2026-05-05 05:31 4.18154 73.52859 11 ft 2 kts 203°
2026-05-05 05:32 4.18168 73.52863 10 ft 1 kts 183°
2026-05-05 05:32 4.18174 73.52862 11 ft 1 kts 176°
2026-05-05 05:32 4.18177 73.52862 11 ft 0 kts 178°
2026-05-05 05:37 4.18174 73.52862 10 ft 2 kts 179°
2026-05-05 05:37 4.18149 73.52863 10 ft 3 kts 173°
2026-05-05 05:37 4.18123 73.52874 10 ft 5 kts 141°
2026-05-05 05:38 4.18118 73.52919 10 ft 7 kts 55°
2026-05-05 05:38 4.18160 73.52936 11 ft 5 kts 20°
2026-05-05 05:38 4.18187 73.52960 10 ft 4 kts 62°
2026-05-05 05:38 4.18190 73.52989 10 ft 3 kts 89°
2026-05-05 05:39 4.18191 73.53016 10 ft 4 kts 90°
2026-05-05 05:39 4.18191 73.53080 10 ft 12 kts 85°
2026-05-05 05:39 4.18208 73.53105 10 ft 2 kts
2026-05-05 05:39 4.18265 73.53105 10 ft 29 kts 359°
2026-05-05 05:40 4.18765 73.53105 11 ft 110 kts
2026-05-05 05:40 4.19771 73.53104 11 ft 176 kts 359°
2026-05-05 05:40 4.21088 73.53100 616 ft 188 kts 357°
2026-05-05 05:40 4.22297 73.53120 1612 ft 176 kts 358°
2026-05-05 05:41 4.23581 73.53117 2136 ft 191 kts 356°
2026-05-05 05:41 4.24949 73.53102 2692 ft 205 kts 357°
2026-05-05 05:41 4.26433 73.53095 3231 ft 221 kts 358°
2026-05-05 05:41 4.28040 73.53092 3762 ft 240 kts 358°
2026-05-05 05:42 4.29775 73.53089 4379 ft 256 kts 358°
2026-05-05 05:42 4.31585 73.53085 5024 ft 271 kts 358°
2026-05-05 05:42 4.33500 73.53082 5890 ft 276 kts 358°
2026-05-05 05:42 4.35422 73.53081 6758 ft 280 kts
2026-05-05 05:43 4.37350 73.53477 7596 ft 286 kts 26°
2026-05-05 05:43 4.38840 73.54745 8426 ft 291 kts 54°
2026-05-05 05:43 4.39642 73.56587 9248 ft 294 kts 76°
2026-05-05 05:43 4.40036 73.58611 10049 ft 298 kts 79°
2026-05-05 05:44 4.40428 73.60689 10629 ft 311 kts 78°
2026-05-05 05:44 4.40858 73.62869 11081 ft 327 kts 78°
2026-05-05 05:44 4.41320 73.65157 11523 ft 343 kts 78°
2026-05-05 05:44 4.41807 73.67556 11906 ft 359 kts 78°
2026-05-05 05:45 4.42305 73.70014 12470 ft 368 kts 78°
2026-05-05 05:45 4.42813 73.72530 13207 ft 372 kts 78°
2026-05-05 05:45 4.43324 73.75067 13896 ft 375 kts 78°
2026-05-05 05:45 4.43845 73.77650 14554 ft 380 kts 78°
2026-05-05 05:46 4.44372 73.80265 15187 ft 384 kts 79°
2026-05-05 05:46 4.44904 73.82906 15801 ft 389 kts 79°
2026-05-05 05:46 4.45436 73.85550 16388 ft 393 kts 79°
2026-05-05 05:46 4.45979 73.88251 16985 ft 397 kts 79°
2026-05-05 05:47 4.46522 73.90956 17523 ft 402 kts 79°
2026-05-05 05:47 4.47071 73.93691 18082 ft 405 kts 79°
2026-05-05 05:47 4.47635 73.96500 18593 ft 410 kts 79°
2026-05-05 05:47 4.47822 73.97433 18764 ft 412 kts 79°
2026-05-05 05:48 4.49313 74.04856 20156 ft 420 kts 79°
2026-05-05 05:48 4.49892 74.07751 20657 ft 424 kts 79°
2026-05-05 05:48 4.50469 74.10644 21152 ft 426 kts 79°
2026-05-05 05:49 4.51045 74.13546 21654 ft 429 kts 79°
2026-05-05 05:49 4.51630 74.16494 22085 ft 432 kts 79°
2026-05-05 05:49 4.52214 74.19447 22591 ft 434 kts 79°
2026-05-05 05:49 4.52795 74.22385 23094 ft 436 kts 79°
2026-05-05 05:50 4.53386 74.25380 23557 ft 438 kts 79°
2026-05-05 05:50 4.53973 74.28366 24037 ft 440 kts 80°
2026-05-05 05:50 4.54425 74.31387 24485 ft 441 kts 84°
2026-05-05 05:50 4.54704 74.34460 24939 ft 443 kts 86°
2026-05-05 05:51 4.54906 74.37512 25386 ft 445 kts 87°
2026-05-05 05:51 4.55085 74.40634 25837 ft 446 kts 87°
2026-05-05 05:51 4.55253 74.43713 26276 ft 447 kts 87°
2026-05-05 05:51 4.55421 74.46840 26664 ft 450 kts 87°
2026-05-05 05:52 4.55586 74.49949 27101 ft 451 kts 87°
2026-05-05 05:52 4.55751 74.53104 27487 ft 453 kts 87°
2026-05-05 05:52 4.55913 74.56219 27871 ft 454 kts 87°
2026-05-05 05:52 4.56075 74.59394 28246 ft 456 kts 87°
2026-05-05 05:53 4.56238 74.62591 28640 ft 458 kts 87°
2026-05-05 05:53 4.56399 74.65770 28970 ft 461 kts 87°
2026-05-05 05:53 4.56557 74.68933 29400 ft 461 kts 87°
2026-05-05 05:53 4.56719 74.72187 29715 ft 464 kts 87°
2026-05-05 05:54 4.56877 74.75414 30110 ft 465 kts 87°
2026-05-05 05:54 4.57033 74.78615 30771 ft 459 kts 87°
2026-05-05 05:54 4.57185 74.81740 31345 ft 455 kts 87°
2026-05-05 05:54 4.57339 74.84917 31716 ft 455 kts 87°
2026-05-05 05:55 4.57492 74.88065 32059 ft 456 kts 88°
2026-05-05 05:55 4.57650 74.91239 32504 ft 454 kts 88°
2026-05-05 05:55 4.57809 74.94405 33000 ft 452 kts 87°
2026-05-05 05:55 4.57968 74.97540 33557 ft 449 kts 87°
2026-05-05 05:56 4.58124 75.00639 33995 ft 448 kts 87°
2026-05-05 05:56 4.58274 75.03726 34347 ft 448 kts 87°
2026-05-05 05:56 4.58421 75.06863 34641 ft 449 kts 87°
2026-05-05 05:56 4.58593 75.09973 34880 ft 449 kts 84°
2026-05-05 05:57 4.59889 75.16074 34924 ft 445 kts 74°
2026-05-05 05:57 4.61697 75.21938 34935 ft 445 kts 72°
2026-05-05 05:58 4.63608 75.27841 34931 ft 445 kts 70°
2026-05-05 05:58 4.66290 75.33425 34928 ft 445 kts 61°
2026-05-05 05:59 4.69446 75.38758 34927 ft 446 kts 59°
2026-05-05 05:59 4.72614 75.44110 34927 ft 447 kts 60°
2026-05-05 06:00 4.75687 75.49480 34927 ft 446 kts 61°
2026-05-05 06:00 4.78723 75.54900 34928 ft 446 kts 61°
2026-05-05 06:01 4.81719 75.60303 34926 ft 445 kts 61°
2026-05-05 06:01 4.84723 75.65742 34927 ft 445 kts 61°
2026-05-05 06:02 4.87707 75.71143 34926 ft 445 kts 61°
2026-05-05 06:02 4.90752 75.76588 34925 ft 446 kts 61°
2026-05-05 06:03 4.93776 75.81966 34928 ft 447 kts 61°
2026-05-05 06:03 4.96828 75.87395 34929 ft 446 kts 61°
2026-05-05 06:04 4.99871 75.92816 34929 ft 447 kts 60°
2026-05-05 06:04 5.02925 75.98252 34924 ft 447 kts 60°
2026-05-05 06:05 5.05975 76.03687 34925 ft 447 kts 61°
2026-05-05 06:05 5.09017 76.09132 34925 ft 449 kts 62°
2026-05-05 06:06 5.11569 76.14784 34925 ft 447 kts 70°
2026-05-05 06:06 5.13530 76.20736 34925 ft 449 kts 73°
2026-05-05 06:07 5.15329 76.26697 34923 ft 449 kts 73°
2026-05-05 06:07 5.17128 76.32692 34919 ft 448 kts 73°
2026-05-05 06:08 5.18927 76.38643 34916 ft 449 kts 73°
2026-05-05 06:08 5.20749 76.44624 34915 ft 448 kts 73°
2026-05-05 06:09 5.22571 76.50573 34915 ft 449 kts 73°
2026-05-05 06:09 5.24401 76.56545 34915 ft 450 kts 73°
2026-05-05 06:10 5.26235 76.62527 34916 ft 449 kts 73°
2026-05-05 06:10 5.28069 76.68520 34916 ft 451 kts 73°
2026-05-05 06:11 5.29908 76.74528 34913 ft 449 kts 73°
2026-05-05 06:11 5.31731 76.80492 34916 ft 450 kts 73°
2026-05-05 06:12 5.33566 76.86485 34918 ft 450 kts 73°
2026-05-05 06:12 5.35393 76.92452 34924 ft 449 kts 73°
2026-05-05 06:13 5.37226 76.98441 34925 ft 449 kts 73°
2026-05-05 06:13 5.39061 77.04443 34922 ft 449 kts 73°
2026-05-05 06:14 5.40354 77.08676 35230 ft 440 kts 73°